Regional Weather Roundup
Issued by NWS

Home | Current Version | Previous Version | Graphics & Text | Print | Product List | Glossary On
Versions: 1 2 3 4 5 6 7 8 9 10 11 12 13 14 15 16 17 18 19 20 21 22 23 24 25 26 27 28 29 30 31 32 33 34 35 36 37 38 39 40 41 42 43 44 45 46 47 48 49 50
000
ASUS43 KMKX 251511
RWRWI

WISCONSIN REGIONAL WEATHER ROUNDUP
NATIONAL WEATHER SERVICE MILWAUKEE/SULLIVAN WI
1000 AM CDT MON JUL 25 2016

NOTE: "FAIR" INDICATES FEW OR NO CLOUDS BELOW 12,000 FEET WITH NO
SIGNIFICANT WEATHER AND/OR OBSTRUCTIONS TO VISIBILITY.

WIZ001-002-006>008-014>016-023>028-251600-
NORTHWEST WISCONSIN

CITY           SKY/WX    TMP DP  RH WIND       PRES   REMARKS
SUPERIOR ARPT  MOSUNNY   75  64  69 W8        30.02R
ASHLAND        SUNNY     76  61  59 W9        30.01R
HAYWARD        SUNNY     74  60  61 VRB3      30.04S
SIREN          SUNNY     73  63  68 W6        30.06S
CUMBERLAND     SUNNY     72  61  68 NW7       30.07R
RICE LAKE      SUNNY     73  63  70 W5        30.07R
CHETEK         SUNNY     74  64  71 NW5       30.06R
LADYSMITH      MOSUNNY   74  61  65 NW9       30.06S
EAU CLAIRE     SUNNY     76  63  64 VRB6      30.05R
MENOMONIE      SUNNY     78  64  60 W7        30.06R HX  80
NEW RICHMOND   SUNNY     75  61  61 W5        30.07S
OSCEOLA        SUNNY     75  63  66 W3        30.10R
$$

WIZ003>005-009-010-017-018-251600-
NORTH CENTRAL WISCONSIN

CITY           SKY/WX    TMP DP  RH WIND       PRES   REMARKS
MANITOWISH WTR SUNNY     71  58  63 N9        30.02R
ARBOR VITAE    SUNNY     72  58  62 NW13      30.03R
WOODRUFF       SUNNY     72  58  62 NW13      30.03R
RHINELANDER    SUNNY     73  59  61 VRB6      30.03R
EAGLE RIVER    SUNNY     72  55  54 NW10      30.01S
LAND O LAKES   SUNNY     72  55  55 NW9G16    30.02R
PHILLIPS       SUNNY     71  61  69 NW6       30.03S
TOMAHAWK       SUNNY     73  58  59 NW9       30.04R
MEDFORD        SUNNY     72  63  74 NW8       30.05R
MERRILL        SUNNY     74  62  66 NW13      30.02S
$$

WIZ029-030-035-036-043>047-251600-
CENTRAL WISCONSIN

CITY           SKY/WX    TMP DP  RH WIND       PRES   REMARKS
WAUSAU         SUNNY     74  62  66 NW7       30.01R
MOSINEE        SUNNY     73  64  73 W8        30.04R
MARSHFIELD     SUNNY     75  64  68 NW13      30.04R
STEVENS POINT  SUNNY     74  62  67 W6        30.03S
WAUPACA        SUNNY     80  64  57 W9        30.01R HX  81
WAUTOMA        SUNNY     77  65  66 NW9       30.02S
WISC RAPIDS    SUNNY     77  62  59 NW8       30.04S
CAMP DOUGLAS   NOT AVBL
$$

WIZ011>013-019>022-031-037>040-048>050-251600-
NORTHEAST WISCONSIN

CITY           SKY/WX    TMP DP  RH WIND       PRES   REMARKS
ANTIGO         SUNNY     73  61  65 NW13G18   30.02S
SHAWANO        SUNNY     78  64  62 W7        29.99S HX  80
OCONTO         SUNNY     76  64  65 W9        29.95S
STURGEON BAY   NOT AVBL
GREEN BAY      SUNNY     76  67  73 W12       29.97S
MANITOWOC      SUNNY     78  63  59 MISG      29.98R HX  80
APPLETON       MOSUNNY   75  61  60 NW10      29.99R
CLINTONVILLE   SUNNY     77  61  57 NW9       29.99S
OSHKOSH        SUNNY     77  64  64 W8        29.99S
$$

WIZ032>034-041-042-053>061-251600-
SOUTHWEST WISCONSIN

CITY           SKY/WX    TMP DP  RH WIND       PRES   REMARKS
LA CROSSE      SUNNY     78  64  61 N5        30.05S HX  80
SPARTA         SUNNY     76  65  68 W3        30.05F
VIROQUA        SUNNY     75  65  70 NW7       30.07S
BOSCOBEL       SUNNY     80  67  64 NW7       30.04S HX  82
PRAIRIE DU CHI SUNNY     76  64  64 NW6       30.04S
PLATTEVILLE    SUNNY     76  69  78 NW7       30.04F
$$

WIZ056-057-062-063-064-067-068-251600-
SOUTH CENTRAL WISCONSIN

CITY           SKY/WX    TMP DP  RH WIND       PRES   REMARKS
REEDSBURG      SUNNY     76  67  74 NW7       30.03F
BARABOO/DELLS  SUNNY     76  64  67 W7        30.04S
LONE ROCK      SUNNY     77  66  68 NW9       30.03F
MINERAL POINT  SUNNY     79  66  65 NW8       30.05R HX  81
MADISON        MOSUNNY   79  66  64 VRB5      30.01S HX  81
MIDDLETON      SUNNY     79  66  64 NW9       30.03R HX  81
WATERTOWN      SUNNY     77  67  71 NW7       30.01S
MONROE         SUNNY     77  64  65 N5        30.03S
JANESVILLE     MOSUNNY   81  64  57 NW9       30.01S HX  82
$$

WIZ051-052-058>065-066-070>072-251600-
SOUTHEAST WISCONSIN

CITY           SKY/WX    TMP DP  RH WIND       PRES   REMARKS
MILWAUKEE      MOSUNNY   81  63  54 NW8       29.99R HX  82
WAUKESHA       SUNNY     75  63  64 NW15      30.02R
MILWAUKEE/TIMM SUNNY     79  61  53 NW10      30.00R HX  80
RACINE         SUNNY     80  66  62 W8        30.01R HX  82
BURLINGTON     SUNNY     78  67  67 W5        30.01R HX  80
KENOSHA        SUNNY     80  66  62 VRB7      30.00R HX  82
FOND DU LAC    SUNNY     79  66  64 NW9       30.00R HX  81
SHEBOYGAN      SUNNY     78  66  66 NW8       29.98R HX  80
WEST BEND      SUNNY     77  63  61 NW10      30.00S
JUNEAU         SUNNY     75  65  70 NW6       30.02S
$$

LSZ147-162-251600-
LAKE SUPERIOR

STATION/POSITION TIME  TEMP    WIND        PRES    WAVE
                       AIR SEA DIR/SP/G            HT/PER
                 (UTC) (F)     (DEG/KT/KT) (MB)    (FT/S)
W MID LAKE BUOY  1450   63 59  250/ 12/ 14 1013.7R   1/ 4
DEVILS ISLAND    1500   64     240/ 16/ 19 1015.3R
SAXON HARBOR     1440   71     320/  6/  9 1015.6S
$$

LMZ867-665-643>646-251600-
LAKE MICHIGAN

STATION/POSITION TIME  TEMP    WIND        PRES    WAVE
                       AIR SEA DIR/SP/G            HT/PER
                 (UTC) (F)     (DEG/KT/KT) (MB)    (FT/S)
CHAMBERS ISLAND  1440   77     220/  2/  8 1013.5R
N MID LAKE BUOY  1450   69 68  270/ 12/ 14 1012.1R   2/ 3
NORTHPORT PIER   1400   75     280/  7/ 13 1012.9S
SISTER BAY       1421   77     290/ 11/ 12   N/A
ALGOMA LAKESHORE 1445          310/  6/  9   N/A
KEWAUNEE LAKESHO 1400   75     290/  6/ 10 1013.8F
SHEBOYGAN LAKESH 1500   77     310/ 10/ 11 1014.8R
PORT WASHINGTON  1440   79     300/  7/ 12 1015.6S
MILWAUKEE LAKESH 1410   77     330/  8/ 10   N/A
S MID LAKE BUOY  1450   72 72  330/ 10/ 12 1014.5R   2/ 4
KENOSHA   LAKESH 1500   78     320/  8/ 12 1015.2R
$$

TC  - TEMPERATURE IN CELSIUS
VSB - VISIBILITY IN STATUTE MILES
WCI - WIND CHILL INDEX
HX  - HEAT INDEX




USA.gov is the U.S. government's official web portal to all federal, state and local government web resources and services.